Theta_e
311 310 310 310 310 310 310 311 311 311 311 311 312 311 312 312 312 312 313 313 313 314 314 314 314 314 314 316 315 315 316 307 305 303 302 305 313 318 320 323 325 328 328 315 312 312 309 308 306 307 304 301 300 301 301 305 304 303 295 292 290 292 292 294 296 295 295 296 297 297 303 303 302 305 309 309 308 306 307 312 316 319 319 320 319 320 326 328
311 312 310 310 310 310 310 310 310 310 311 311 312 311 311 312 312 312 313 313 312 313 313 313 314 314 315 315 316 315 311 306 301 302 303 315 326 324 323 327 326 327 326 311 309 309 307 306 306 305 302 297 302 300 303 299 304 298 292 292 293 293 296 297 297 297 296 295 295 297 298 303 305 305 306 306 304 304 305 309 315 315 317 319 320 323 326 326
310 310 310 310 310 310 310 310 311 311 310 310 311 311 311 311 311 312 312 313 312 312 313 313 313 314 314 314 315 315 309 301 299 297 309 326 323 321 323 324 326 326 316 311 310 309 307 307 307 303 300 296 295 294 300 297 303 297 295 292 294 295 297 299 299 299 297 298 298 298 299 301 303 305 307 305 304 303 305 308 311 313 314 316 320 323 324 325
310 310 310 309 310 310 310 310 311 310 311 311 311 311 311 311 311 311 311 311 311 312 312 312 313 313 313 315 314 310 303 297 291 306 316 326 322 321 322 320 327 325 318 315 312 311 311 309 306 303 299 296 293 297 294 295 298 296 296 293 294 297 296 299 300 300 300 298 298 298 299 298 300 304 306 303 302 302 304 311 312 313 315 317 320 322 323 324
310 310 311 312 311 309 310 310 310 311 310 311 310 310 311 311 310 311 311 311 311 311 311 312 312 312 313 314 313 306 299 283 297 307 318 319 320 321 319 320 320 323 319 316 312 309 308 306 305 302 298 292 293 293 292 295 299 298 295 298 296 295 296 300 301 300 299 299 299 298 298 299 301 301 304 303 303 302 304 308 312 316 318 319 319 321 323 322
310 310 310 310 311 310 310 310 310 310 310 310 310 310 310 311 310 310 310 311 311 311 311 311 311 312 313 313 307 302 290 274 303 302 315 317 319 316 317 319 321 322 314 308 306 306 305 304 301 295 293 293 292 291 290 293 300 292 294 296 297 299 299 297 299 300 300 299 298 297 299 300 301 298 298 303 304 303 305 307 310 318 320 322 323 322 321 321
310 310 310 310 310 310 309 309 310 310 310 310 310 310 310 310 310 310 310 310 311 311 311 311 311 312 313 312 304 297 292 292 299 302 313 316 314 313 314 315 320 312 311 308 306 303 302 301 301 297 295 292 293 291 293 293 295 293 291 293 296 297 297 299 301 300 298 299 298 298 300 299 299 299 299 301 303 305 307 308 309 320 321 322 321 321 321 321
309 309 310 310 309 309 309 309 309 309 310 309 310 310 310 310 311 310 311 310 311 311 311 311 311 311 311 303 297 291 290 290 298 303 312 312 306 306 311 307 308 308 308 308 305 304 302 300 298 299 294 293 292 296 295 298 297 291 289 292 294 297 298 298 297 297 298 299 300 300 299 300 299 299 299 301 303 304 306 308 309 319 321 320 321 321 321 321
310 310 310 310 309 309 309 309 309 309 309 310 310 310 310 310 310 310 310 311 311 311 311 311 311 311 311 301 294 285 283 296 302 303 304 301 302 303 305 304 307 305 305 308 309 307 303 298 300 300 295 296 298 297 298 294 291 292 290 293 293 295 297 298 298 298 297 297 299 299 298 299 299 300 299 301 303 304 304 308 311 316 320 319 320 320 321 321
309 310 310 309 309 309 308 309 309 309 309 310 310 310 310 310 310 310 310 311 311 311 311 311 310 310 304 298 292 281 290 301 302 303 302 302 303 303 303 303 303 303 303 304 305 307 304 303 304 304 301 298 299 296 298 297 293 297 297 295 295 296 296 297 296 296 297 298 299 299 298 299 300 299 296 298 303 305 304 304 307 313 319 320 320 320 321 321
310 310 309 309 309 309 308 309 309 309 309 309 310 310 310 310 310 310 310 311 312 311 311 310 310 308 298 298 290 283 300 300 302 301 302 303 302 300 300 300 301 302 302 302 301 305 308 307 307 306 301 297 298 295 294 293 298 299 298 297 296 294 295 296 296 295 296 297 297 298 298 299 301 297 299 299 301 300 302 302 303 309 315 319 320 320 320 321
309 309 309 309 309 309 309 309 309 309 309 309 309 310 310 310 310 310 311 311 312 312 311 311 309 305 300 295 290 289 301 300 302 302 303 302 301 301 301 301 302 303 302 299 301 304 308 308 308 304 294 302 294 296 295 299 299 298 298 294 294 295 294 294 294 295 297 295 299 300 297 296 298 297 299 303 302 303 301 301 300 304 310 314 317 319 319 320
310 309 309 309 309 309 309 309 309 309 310 309 309 309 310 310 311 311 312 311 313 313 312 311 309 303 297 289 292 299 301 302 302 302 302 302 302 303 303 302 303 303 304 302 301 304 306 307 309 304 303 300 295 292 295 300 298 298 296 293 293 291 290 293 294 295 294 295 299 299 289 293 296 299 300 302 302 302 301 301 301 301 305 310 314 316 318 319
309 309 309 309 309 309 309 309 309 309 309 309 309 309 310 310 311 311 312 312 313 312 312 311 304 299 294 289 295 300 301 302 302 301 301 304 302 302 304 306 305 304 306 305 304 305 306 309 309 307 307 301 295 301 297 295 297 292 294 293 287 285 283 291 293 293 293 296 297 298 289 292 292 295 298 301 301 301 301 301 301 302 302 305 309 315 316 317
310 309 309 309 309 309 309 309 309 309 309 309 309 310 310 310 311 311 312 312 311 309 311 310 299 294 288 290 299 302 310 305 300 300 304 302 301 299 300 304 304 304 304 303 302 304 308 309 307 303 297 302 301 296 291 290 291 292 289 285 286 286 285 291 293 292 290 292 298 297 289 291 291 294 295 297 300 301 301 302 302 302 303 303 305 310 314 316
310 310 310 309 309 309 309 309 308 309 309 309 309 310 310 310 310 311 311 308 307 307 301 297 297 294 290 286 294 309 298 295 296 300 300 304 301 297 301 302 303 303 303 302 307 310 307 306 301 299 298 299 295 290 287 285 285 288 289 284 282 284 287 289 293 293 293 292 294 295 287 288 292 298 302 302 299 300 300 301 301 301 302 303 303 306 311 314
309 309 309 310 309 309 309 309 308 309 310 310 310 310 310 310 311 309 307 306 302 301 298 295 296 299 285 294 300 293 292 296 299 296 298 301 300 299 302 300 298 300 302 302 302 302 304 302 302 301 299 294 290 290 285 281 282 283 286 285 285 285 285 285 290 291 294 292 289 294 291 290 290 290 293 296 297 298 299 300 300 301 301 303 303 303 306 310
309 309 309 309 309 309 309 309 309 310 310 310 309 309 306 310 309 309 304 302 298 301 300 300 297 290 285 290 286 287 293 293 294 296 297 299 300 300 302 300 299 298 299 297 299 298 301 297 302 293 294 292 291 288 283 278 281 280 281 281 284 286 287 286 286 288 292 292 291 290 291 291 292 295 295 295 295 296 298 299 300 301 301 301 301 302 303 307
309 309 309 309 309 309 309 309 309 310 310 310 309 309 308 308 298 297 294 295 288 283 279 282 283 274 276 286 290 291 292 295 297 295 294 297 302 306 305 305 302 299 293 291 291 297 296 295 298 293 288 289 288 289 287 285 284 283 283 283 284 284 285 287 291 294 294 290 288 289 288 291 293 294 296 298 297 295 296 297 298 299 300 301 301 301 303 304
308 308 309 309 309 309 309 309 310 310 311 306 299 296 293 288 284 283 290 291 285 284 286 286 287 287 288 289 289 293 297 297 291 293 296 298 302 298 296 298 299 299 294 288 291 294 298 288 286 286 288 290 290 290 290 291 291 290 288 286 283 283 285 287 289 292 294 291 290 290 290 290 292 294 296 297 298 296 295 295 296 297 299 300 300 301 302 303
308 308 308 308 308 308 309 309 310 310 310 300 296 291 286 286 280 279 287 288 287 289 288 288 289 288 287 290 291 292 289 289 292 292 295 301 298 295 290 296 294 289 292 293 290 298 295 286 285 288 290 293 292 290 289 290 290 289 287 286 286 285 284 288 289 290 293 291 290 290 289 290 291 293 296 297 296 296 297 296 296 297 298 299 299 300 300 302
308 308 308 308 308 308 309 309 310 310 309 295 294 289 289 290 292 292 289 282 287 289 289 289 290 288 291 291 293 293 292 287 289 291 296 299 296 288 288 291 289 285 291 291 291 288 286 284 288 290 292 293 294 292 291 290 288 288 287 286 285 286 287 289 290 291 292 291 289 291 289 290 291 293 294 295 296 298 299 299 299 299 298 298 298 299 300 299
307 307 307 307 308 308 309 309 309 308 297 294 290 289 290 295 296 296 294 287 284 289 287 287 286 286 287 291 293 294 287 284 284 290 293 297 292 290 290 285 284 286 288 290 283 283 282 285 289 292 293 291 292 293 291 289 289 287 286 284 283 286 284 280 284 286 290 291 287 287 287 289 289 289 291 293 295 295 297 298 298 298 299 299 299 299 299 299
306 307 307 307 307 308 309 308 309 300 296 293 291 292 296 296 295 293 287 277 279 285 286 287 288 287 287 289 294 292 287 287 287 288 295 294 287 293 288 287 284 283 282 287 287 284 283 288 291 289 290 291 289 290 290 289 287 287 286 285 284 285 285 285 284 288 290 290 289 288 287 288 289 289 290 291 292 292 294 295 295 296 297 299 300 300 300 300
306 306 307 307 307 308 308 308 296 294 296 292 291 295 295 296 296 294 286 279 276 280 288 288 289 289 292 298 295 290 289 288 289 292 294 293 289 288 286 292 288 282 283 285 288 286 286 290 292 289 287 288 288 287 288 288 286 287 287 287 287 287 285 286 286 287 284 284 286 286 278 280 286 289 290 292 291 292 293 292 293 294 296 297 297 299 300 300
306 306 306 307 307 307 308 295 290 296 294 290 293 295 295 295 294 295 287 274 268 275 283 282 293 287 297 289 292 291 289 282 289 292 295 293 297 289 289 284 289 281 286 286 284 287 288 292 291 288 288 286 286 287 289 288 285 285 285 289 288 287 287 286 285 286 281 280 283 286 280 277 283 283 287 289 289 291 292 291 294 295 296 295 296 298 300 301
305 306 306 306 306 307 297 290 296 295 288 290 294 295 295 295 296 291 281 260 258 277 278 286 289 287 293 290 291 290 272 277 291 291 292 296 291 296 284 283 287 287 289 291 285 279 289 289 289 289 287 286 285 283 287 289 286 284 291 288 288 287 286 286 287 287 283 283 284 285 284 278 279 283 285 286 286 287 287 289 290 292 293 294 295 296 298 301
305 305 306 306 306 306 296 296 295 292 292 295 297 296 296 296 292 286 268 256 257 280 280 283 289 296 291 290 290 285 285 287 281 287 293 293 294 290 286 283 283 284 288 287 276 286 285 285 288 286 286 285 284 286 286 288 286 287 291 290 288 287 286 286 286 285 285 284 281 284 284 280 278 282 287 284 283 282 285 286 288 290 291 292 294 295 296 299
304 305 306 306 307 306 300 295 294 292 294 297 298 296 298 293 289 275 259 258 275 275 293 284 297 288 286 289 285 286 285 289 282 286 291 292 296 290 282 284 285 287 288 287 280 283 286 288 289 289 286 283 287 289 286 287 285 288 290 290 289 288 287 286 285 284 283 281 278 282 283 278 279 280 281 282 284 285 287 289 288 288 289 290 292 294 296 297
304 304 305 306 304 297 293 294 293 296 298 298 296 295 294 287 277 265 257 256 275 267 283 285 284 280 284 281 281 282 282 283 286 287 288 286 288 293 290 293 285 283 282 284 284 285 286 292 293 290 286 288 289 290 289 288 289 290 289 288 287 286 284 284 283 283 281 278 280 284 284 282 276 282 280 282 282 285 288 286 286 288 288 289 290 291 294 295
303 304 305 306 295 296 296 292 292 294 297 297 295 292 285 274 264 255 257 266 277 274 282 273 280 284 281 278 276 280 281 281 283 284 282 286 284 285 285 282 287 281 277 280 280 282 283 284 286 290 293 292 292 288 291 291 288 288 284 284 284 283 284 284 282 282 278 276 284 286 283 283 275 280 281 286 284 283 286 286 287 288 289 290 290 291 292 294
303 304 305 302 301 300 293 292 295 298 297 296 294 288 275 266 264 260 261 277 268 271 275 275 280 280 280 280 278 278 278 279 280 282 280 280 280 279 280 279 281 272 269 274 275 282 279 279 282 286 293 292 289 287 288 289 289 287 285 284 279 275 278 275 280 275 276 276 282 282 283 279 279 285 281 283 283 286 284 286 288 289 290 290 291 291 292 293
303 304 305 303 300 294 295 298 299 298 297 295 289 277 267 259 260 259 266 266 265 271 275 280 279 280 279 275 274 279 278 277 280 280 281 278 277 278 281 281 282 276 268 277 277 276 276 279 280 282 287 292 289 283 282 281 285 284 283 281 277 273 274 272 276 278 279 282 283 280 284 280 284 287 291 289 289 287 290 291 289 289 289 290 291 291 291 292
303 304 297 298 298 298 298 298 297 298 297 292 282 275 267 261 261 277 266 264 270 275 279 279 280 279 276 273 274 277 274 275 277 279 279 275 274 273 277 282 283 279 276 276 273 275 268 270 276 281 278 287 286 286 286 283 285 284 287 285 280 279 275 272 275 272 274 277 278 279 278 273 279 280 286 292 293 295 296 296 296 293 290 290 291 290 290 291
303 299 294 295 293 294 296 297 298 298 292 285 277 269 266 263 264 262 263 263 274 278 278 276 278 277 272 271 275 279 278 271 278 278 276 274 272 273 275 280 283 282 280 271 273 270 273 273 280 284 282 282 282 289 289 287 285 286 288 287 281 278 284 274 275 273 273 273 273 275 277 281 283 287 287 286 286 287 289 291 293 293 294 294 293 293 293 292
299 293 293 290 293 295 297 298 296 295 289 281 271 271 267 268 265 265 271 277 281 279 279 281 278 270 269 269 269 275 280 276 277 276 272 274 277 275 278 281 281 284 278 271 273 265 270 270 281 282 282 282 284 287 286 289 277 284 286 280 283 290 286 280 280 280 275 274 273 280 280 282 286 289 290 291 290 287 288 289 288 290 291 292 293 294 294 293
290 293 289 291 294 296 297 296 297 293 288 281 275 272 273 273 272 271 283 281 281 281 279 274 272 274 269 266 267 270 277 278 275 276 272 275 269 277 277 281 285 284 285 278 271 276 269 272 280 278 278 282 286 284 286 288 288 285 278 283 288 285 285 282 274 278 276 272 274 282 278 279 279 276 284 286 287 289 288 288 288 288 288 288 291 292 293 293
289 289 292 292 296 298 297 295 295 293 290 281 275 279 277 275 279 280 281 281 279 280 277 275 277 280 271 271 267 273 279 276 276 277 271 274 268 279 278 278 284 285 285 283 275 274 277 270 273 277 279 281 283 282 279 285 288 284 283 289 281 276 277 281 277 271 272 272 273 278 279 280 280 281 281 281 282 282 283 285 285 288 290 289 290 291 292 292
287 283 280 294 300 299 295 294 293 289 283 276 274 275 275 273 279 280 282 283 282 279 274 275 272 277 277 272 274 277 280 274 277 273 272 272 267 277 279 281 280 283 283 284 276 276 278 272 273 277 277 278 279 276 271 277 282 281 286 283 286 283 279 277 278 279 276 271 273 272 278 275 282 281 284 283 286 284 285 287 287 288 288 290 291 293 293 293
284 274 274 291 299 297 295 294 286 277 271 268 269 269 273 274 279 281 282 284 280 280 275 277 275 271 271 275 278 276 280 279 276 275 274 271 273 280 278 283 279 280 282 283 278 280 276 277 267 275 277 279 271 272 275 277 274 275 277 275 279 280 284 283 282 277 276 274 273 273 272 275 282 283 284 284 285 286 287 287 288 288 289 289 291 293 293 292
283 272 274 292 298 293 291 286 281 277 275 277 275 271 273 275 281 281 282 282 279 282 281 279 278 272 270 276 277 278 278 277 274 271 273 272 274 269 278 282 280 279 281 279 277 278 274 275 271 275 275 273 275 279 279 279 278 276 277 276 280 278 275 273 272 282 278 276 272 272 271 279 283 287 287 286 286 287 288 287 288 288 290 290 291 292 291 292
275 267 276 293 292 292 284 271 272 277 276 275 272 276 277 288 280 280 280 280 281 279 281 280 279 279 276 275 277 278 278 277 276 274 273 272 274 276 277 278 280 280 279 276 277 281 278 277 275 272 274 275 278 281 282 280 277 278 280 278 281 279 280 275 270 274 277 274 278 276 274 277 289 288 285 285 285 286 287 287 288 289 290 290 291 291 291 292
273 270 284 288 290 290 279 266 276 281 279 279 282 279 283 282 280 280 281 281 278 280 272 275 280 279 277 275 274 275 279 277 278 273 273 273 274 278 280 281 281 282 281 276 280 281 285 273 273 274 275 277 277 277 275 279 280 277 278 279 280 278 280 277 276 277 272 274 272 273 272 278 286 285 286 285 285 285 286 287 288 289 290 291 292 292 292 292
273 275 280 288 291 287 276 270 272 273 276 278 281 279 281 279 280 280 280 279 277 276 276 273 279 282 279 280 279 277 281 274 279 276 273 274 275 279 278 281 283 279 280 278 278 283 275 271 271 270 269 270 267 267 274 277 277 275 275 279 281 281 279 278 278 278 273 273 274 273 267 274 283 286 286 285 284 284 285 286 287 288 290 291 293 294 294 293
276 275 278 283 291 285 274 269 274 275 278 278 278 276 274 275 280 281 280 278 280 277 279 280 281 281 280 282 281 281 279 278 275 280 279 277 278 279 280 280 283 282 284 287 287 286 278 276 272 267 264 262 261 260 265 268 273 276 276 277 280 278 277 276 271 272 270 275 277 272 271 278 282 284 283 283 283 284 285 286 286 286 288 290 292 293 293 294
269 266 272 273 279 282 284 286 284 280 279 277 273 272 275 271 276 279 280 278 279 280 281 281 281 281 280 281 279 279 278 279 277 275 274 270 275 279 281 280 279 281 285 288 287 284 275 277 275 273 271 269 269 270 272 278 276 272 274 275 276 278 279 277 276 273 270 273 271 274 275 276 278 280 281 282 282 282 283 285 285 286 287 288 288 291 292 293
277 273 274 272 275 277 275 278 278 279 276 277 269 272 269 273 274 275 279 276 280 280 279 280 278 279 280 280 278 277 279 278 280 279 278 279 279 279 278 281 282 284 287 286 286 282 276 274 276 274 274 274 276 274 276 278 274 275 274 275 277 277 277 276 273 271 276 271 268 275 277 275 277 279 281 281 282 283 283 284 285 286 287 288 288 289 291 291
267 268 274 279 274 267 267 268 274 272 274 274 270 274 271 271 272 270 275 278 280 280 278 281 282 281 279 277 277 274 276 276 276 275 279 278 276 278 278 281 281 285 287 282 283 280 274 273 276 275 274 276 277 276 277 276 275 275 275 275 275 276 276 273 274 277 277 272 270 275 276 275 277 280 281 282 282 283 283 284 285 286 287 288 288 288 288 289
274 269 275 282 277 277 278 278 276 273 270 272 273 275 271 272 271 276 277 277 279 278 282 275 277 277 277 278 277 274 275 272 272 277 275 275 275 276 276 280 283 284 281 280 281 279 276 274 277 277 276 277 278 277 278 276 275 275 275 275 276 276 275 275 275 276 276 275 277 277 277 277 279 280 282 283 284 284 284 286 286 286 286 287 287 287 288 289
270 271 273 278 276 272 273 274 275 275 271 277 270 271 274 274 275 277 278 276 273 275 279 274 274 275 275 275 275 273 274 275 275 273 277 276 276 279 277 278 278 282 282 279 280 280 277 275 280 277 275 275 278 278 276 276 274 273 275 276 276 276 276 276 276 277 277 276 277 277 276 276 281 284 284 285 286 286 286 285 286 286 286 286 286 287 288 289
279 280 278 274 270 270 274 275 275 274 272 271 269 269 275 275 276 276 275 278 276 275 276 274 275 275 275 274 274 274 276 276 276 277 278 277 274 279 277 277 281 276 278 277 275 276 279 276 279 277 272 272 277 277 277 275 275 273 273 274 274 273 271 274 274 276 274 274 276 276 275 276 281 284 285 285 285 285 284 284 285 286 286 286 286 287 288 289
283 282 283 276 272 279 272 272 272 271 265 270 272 272 275 275 276 274 272 276 277 278 278 275 276 274 274 273 273 275 277 278 278 279 280 281 282 281 281 280 280 278 276 276 278 276 277 276 275 275 271 271 276 277 276 274 272 270 271 274 276 275 276 277 278 278 278 278 275 273 275 281 283 284 283 284 284 284 284 284 284 285 285 285 285 286 288 289
Wind_Speed
15 16 16 16 16 16 16 17 17 18 18 18 19 19 19 20 20 20 20 20 20 21 21 22 22 23 23 23 22 22 27 11 12 9 8 8 7 8 11 9 11 11 12 5 8 11 10 9 10 10 9 4 1 1 3 1 2 1 3 4 6 5 8 5 9 7 2 0 1 2 1 4 6 2 2 2 1 1 3 3 1 4 5 1 2 8 15 15
16 16 16 16 16 16 16 17 17 17 17 17 18 18 19 19 19 19 20 20 20 20 21 21 22 23 23 23 23 24 17 14 11 11 8 13 7 2 9 10 12 11 9 7 7 5 8 11 8 9 7 4 1 2 0 2 2 4 1 3 13 6 6 6 3 6 1 5 2 3 4 3 9 3 2 4 2 5 4 1 2 3 4 5 6 12 16 15
16 17 16 16 16 16 16 16 17 17 18 18 18 18 18 19 19 19 20 20 20 20 20 21 21 23 24 24 24 23 11 12 8 2 3 5 17 18 15 17 16 13 3 4 3 2 3 7 8 5 4 2 2 3 1 4 2 4 4 7 8 4 4 6 3 6 4 3 6 6 6 2 5 2 1 3 7 6 12 6 0 4 1 5 7 11 14 15
17 16 17 17 17 17 17 17 17 17 16 17 18 18 18 19 18 19 19 19 19 20 20 21 21 22 23 24 24 14 6 6 1 1 2 10 22 24 23 26 16 10 3 3 3 4 3 4 4 1 2 1 4 0 1 5 2 3 4 8 4 4 5 4 6 7 8 3 3 4 5 5 4 4 3 2 5 6 7 9 15 11 11 10 11 12 13 15
17 17 18 19 18 17 17 17 17 17 17 17 18 18 18 18 18 18 18 19 19 20 20 20 20 21 22 22 23 9 8 2 2 5 7 18 22 22 25 25 24 7 3 4 6 3 3 3 1 1 1 3 2 2 4 3 3 0 7 3 5 1 3 7 8 7 5 5 2 3 3 6 2 2 3 5 8 9 9 9 8 13 16 16 14 13 13 15
17 18 17 17 18 18 18 18 17 17 18 18 18 18 19 18 18 18 18 19 19 20 20 19 20 20 21 22 12 5 3 2 2 5 8 19 20 21 23 25 22 9 4 5 3 6 5 6 2 2 2 1 3 5 4 2 0 7 5 5 4 5 7 2 3 3 2 5 6 5 5 2 1 3 2 4 7 4 6 5 7 5 16 18 18 16 14 15
18 18 18 17 17 18 18 18 18 18 18 18 19 19 19 19 19 18 19 19 19 19 19 19 18 19 20 16 7 5 5 7 5 8 15 18 21 22 22 21 11 13 8 6 7 5 4 5 1 2 1 2 6 4 8 4 1 3 5 3 6 4 8 6 10 8 6 3 5 3 4 3 3 7 1 2 5 7 4 4 7 8 6 10 13 16 20 19
19 18 18 18 18 18 18 18 18 18 19 19 19 19 20 19 20 19 19 19 18 18 18 19 17 17 19 6 6 5 2 6 11 6 12 16 20 18 16 13 9 11 12 7 4 8 5 5 3 1 0 3 2 1 3 8 4 4 5 4 6 7 5 6 6 6 4 5 5 4 5 7 5 4 3 3 7 4 4 2 2 10 9 9 12 15 16 17
19 19 18 18 19 19 19 19 18 19 19 19 19 19 20 19 19 20 20 20 19 18 18 17 16 16 12 3 3 7 6 4 4 8 9 14 14 15 10 8 11 10 9 8 6 5 2 2 4 1 3 4 2 6 4 1 7 2 4 3 4 4 5 5 5 5 5 3 3 5 8 8 9 5 6 7 7 5 3 0 2 9 11 13 13 14 14 15
19 19 19 19 19 19 19 19 19 19 19 19 19 19 20 20 20 20 20 20 20 18 17 16 15 14 6 4 3 5 5 5 6 9 14 12 14 14 12 8 8 11 8 10 11 6 4 3 4 7 4 4 4 7 2 2 6 3 6 5 7 8 7 5 4 3 2 2 2 3 6 8 5 5 9 3 9 7 2 4 0 9 12 14 12 13 13 15
18 19 20 20 20 21 21 20 20 20 20 20 19 20 21 21 21 21 21 20 19 17 15 15 14 8 3 2 3 7 1 5 4 10 13 11 12 11 11 12 10 7 8 9 9 5 5 5 4 6 2 4 4 6 2 4 3 8 6 7 8 7 6 6 6 7 3 4 3 5 6 8 8 4 11 3 6 3 6 6 4 5 9 11 13 13 13 13
19 19 20 20 21 22 21 20 20 20 20 21 20 21 21 22 23 23 22 20 18 16 14 13 10 3 0 0 5 9 2 4 10 10 10 10 9 9 11 9 6 5 4 8 10 9 5 6 4 3 3 4 4 4 5 2 5 5 5 7 9 7 7 4 6 3 3 3 2 1 4 10 7 11 4 10 6 6 3 5 4 6 6 9 11 11 9 13
19 20 21 21 22 22 22 21 21 20 21 21 21 22 23 23 23 23 22 20 17 16 13 12 4 5 2 7 8 7 7 8 9 10 12 8 6 7 6 7 6 5 4 6 8 10 7 6 2 6 3 2 2 2 4 5 5 5 3 3 7 9 11 9 3 4 2 3 1 3 11 15 15 14 5 5 5 7 8 8 8 5 6 7 8 10 11 10
19 20 21 22 22 22 21 21 21 21 21 22 22 23 24 24 24 23 23 20 19 13 10 7 7 3 2 7 6 4 7 7 7 8 7 6 7 10 9 4 3 4 3 3 7 7 8 4 2 4 3 3 4 3 9 4 3 3 5 1 4 4 6 1 4 4 5 5 5 4 12 15 4 6 5 6 8 8 10 9 10 10 7 7 7 9 11 12
19 20 20 22 22 22 21 21 20 20 21 21 23 23 24 25 23 22 21 19 11 12 7 7 3 4 3 7 5 8 10 3 3 6 5 6 6 8 11 10 11 8 5 4 4 7 4 3 3 4 4 3 2 3 6 2 1 2 3 7 3 8 3 3 3 3 9 1 8 6 11 16 4 6 7 6 7 11 15 14 13 11 11 9 8 9 11 12
19 19 20 21 22 22 22 22 21 20 21 22 24 25 24 23 22 20 18 10 13 12 1 1 1 4 1 7 3 5 3 2 4 6 7 3 4 6 7 6 8 7 9 5 2 3 1 1 4 3 3 3 3 2 4 5 4 3 8 4 3 3 5 4 4 6 9 5 3 14 9 3 3 10 14 15 8 9 13 14 14 13 14 13 11 10 10 10
18 19 20 20 22 22 21 21 20 21 21 23 25 24 23 23 20 16 6 14 9 4 4 2 1 2 1 5 2 4 2 3 5 5 6 4 7 8 4 4 3 6 6 6 4 2 2 2 1 2 2 4 2 3 2 6 8 7 2 7 2 4 2 3 6 3 7 7 5 8 12 13 2 4 7 6 5 7 10 12 12 11 10 12 9 8 9 10
18 18 19 20 21 23 23 22 21 21 21 22 23 22 20 22 14 5 5 10 4 3 3 2 3 1 4 3 8 11 7 8 7 9 11 11 7 9 4 2 3 3 3 5 4 1 1 2 2 6 1 5 4 6 10 13 9 4 3 4 6 4 6 7 2 3 2 5 12 9 14 17 11 10 7 6 4 7 11 11 11 11 10 10 8 7 8 9
18 18 19 20 20 22 23 22 22 21 21 21 20 22 13 14 4 2 7 8 6 6 4 5 7 4 3 13 15 10 6 9 9 4 6 4 3 2 0 2 4 2 2 1 4 1 2 1 4 6 12 9 11 11 12 4 4 3 7 6 5 8 7 9 8 9 8 5 8 12 13 15 12 12 12 16 6 6 8 7 8 8 10 10 9 8 8 9
18 18 19 20 20 21 22 24 22 21 22 11 9 5 3 7 6 4 6 5 5 3 2 8 1 4 8 11 8 8 6 7 3 5 5 4 2 4 6 3 1 1 1 2 3 3 3 7 9 11 11 8 4 6 8 8 8 9 3 4 7 7 7 3 4 6 7 6 13 14 14 16 12 14 16 15 14 7 6 6 6 6 7 9 10 10 10 10
18 17 18 19 20 21 21 22 22 19 17 6 7 7 7 6 6 7 12 7 4 1 3 6 5 6 7 7 8 8 11 5 0 3 6 3 2 1 4 1 1 1 2 3 6 0 2 8 12 13 8 5 4 4 4 8 9 9 7 7 9 5 9 5 5 4 3 3 7 6 11 16 15 13 13 13 11 13 12 10 10 9 8 8 9 11 11 11
18 18 18 19 20 21 21 22 21 16 10 4 5 5 1 1 1 3 2 8 8 3 6 8 1 4 5 8 7 4 1 4 7 5 6 3 4 1 3 3 3 5 3 2 1 5 7 9 11 9 4 4 5 3 8 10 10 8 8 8 10 12 7 8 8 7 6 3 10 11 9 12 11 10 8 10 13 12 10 10 11 9 9 8 8 8 10 7
17 18 18 19 20 21 22 22 18 9 5 6 4 3 1 1 0 0 0 3 8 3 3 1 1 3 6 4 2 3 3 2 5 8 4 3 4 1 2 2 3 3 4 2 1 6 8 8 15 9 5 6 6 8 8 6 6 8 7 8 12 8 6 7 4 3 2 3 4 2 6 9 5 5 9 9 8 5 7 10 9 7 9 9 10 9 9 10
17 18 18 19 20 21 22 21 10 6 7 2 2 2 1 1 2 3 3 1 5 8 2 3 0 3 5 3 1 4 0 3 1 9 3 3 4 1 1 3 3 3 6 2 5 5 9 12 5 3 10 9 8 9 10 8 9 7 9 9 9 9 7 9 5 7 9 10 4 6 9 11 5 7 6 6 6 6 7 8 8 9 8 8 7 7 7 9
18 18 18 19 19 20 23 13 4 4 5 2 0 1 1 0 3 3 3 3 1 5 3 2 3 2 3 1 2 3 1 3 4 4 2 1 4 2 4 0 0 4 5 4 3 6 11 13 9 11 6 4 8 9 9 8 10 7 7 10 11 8 7 7 6 6 5 8 5 5 6 8 5 9 11 7 5 7 7 8 9 10 12 10 10 11 9 8
18 19 19 19 19 20 18 3 3 4 6 1 2 3 2 1 1 0 2 3 2 4 4 2 0 1 1 3 4 3 1 1 2 4 2 3 3 2 2 2 1 4 0 3 3 3 6 5 2 8 11 10 4 7 7 6 9 10 4 9 10 10 9 9 6 4 7 8 5 2 8 10 1 4 7 6 8 14 6 7 12 12 12 9 10 11 10 10
18 19 20 19 19 18 5 2 2 4 3 2 3 3 3 2 0 2 2 4 3 1 1 2 1 1 2 3 3 5 5 6 10 3 2 2 3 0 1 5 2 2 2 1 1 6 2 2 4 5 5 8 9 7 6 6 8 9 4 4 6 8 10 9 7 9 7 2 4 1 3 7 12 7 5 7 7 8 6 8 11 11 9 9 8 8 10 12
18 19 20 20 20 15 2 2 4 4 3 5 4 4 2 1 3 3 3 2 2 4 2 3 0 2 4 7 2 1 5 5 5 2 2 3 0 2 2 4 2 5 2 1 6 1 4 3 3 3 3 3 5 5 4 1 5 5 4 4 7 6 7 8 8 8 6 7 10 8 1 7 10 5 7 5 5 5 10 11 11 10 10 10 11 10 11 12
18 20 20 19 20 12 1 0 1 2 3 4 6 3 2 3 3 4 3 1 1 1 2 0 4 2 5 8 6 2 2 1 0 4 5 3 2 0 2 2 1 4 5 4 8 6 2 1 1 2 1 7 7 5 2 2 5 3 6 7 4 3 1 4 8 9 5 5 13 11 7 9 14 3 4 4 7 11 14 13 10 8 9 10 11 12 12 10
19 19 21 21 13 3 2 2 2 3 4 4 4 3 3 3 2 2 4 2 1 3 1 3 4 8 7 9 6 5 6 3 2 4 4 1 5 3 4 0 3 2 3 2 6 8 7 6 7 5 6 7 3 6 3 5 8 4 6 6 8 5 4 5 2 5 5 13 13 11 10 11 11 8 8 8 7 9 9 6 4 5 6 8 9 11 11 11
20 20 20 19 5 3 2 4 5 2 4 3 4 5 3 5 2 3 1 3 0 3 3 3 4 4 12 10 7 4 4 4 6 4 8 4 6 4 4 2 1 1 1 2 4 6 5 3 2 5 11 3 6 5 5 5 2 1 2 3 6 10 4 5 5 1 11 12 10 12 9 11 12 11 6 6 2 5 6 8 8 8 9 10 10 10 12 12
19 22 22 13 6 1 1 4 3 2 4 3 4 3 5 2 5 4 1 5 1 5 2 5 2 6 11 7 0 7 4 6 2 6 8 6 7 7 7 6 7 9 7 9 8 7 7 3 2 8 0 8 2 4 4 5 3 2 1 4 7 3 3 8 4 8 9 10 2 2 8 3 15 16 2 6 6 7 4 5 8 9 11 11 11 13 10 9
20 21 22 9 5 1 3 5 2 3 3 4 2 4 4 5 1 3 2 3 2 1 5 1 4 13 7 5 3 4 1 6 5 4 5 2 5 4 2 4 4 1 4 7 7 9 6 3 3 4 3 2 2 4 3 1 4 6 4 4 8 8 8 6 7 5 4 1 1 3 7 11 5 10 11 13 10 5 9 11 12 13 14 13 12 12 10 10
20 18 7 7 5 5 5 2 2 0 2 3 3 6 7 7 2 2 1 1 4 2 3 3 9 7 4 1 4 2 6 2 4 7 5 6 5 6 6 6 5 5 0 4 5 5 6 7 6 5 3 3 2 4 3 1 4 4 2 5 8 7 4 5 3 7 7 5 1 2 3 5 7 7 4 12 16 18 19 18 16 11 9 11 10 8 8 8
19 9 4 6 3 3 2 2 1 2 2 2 4 4 6 1 2 1 2 2 3 4 4 3 6 1 5 4 2 2 3 4 3 8 6 6 6 3 4 6 7 3 2 4 2 2 5 5 7 1 6 3 2 1 2 1 5 6 4 1 4 7 4 9 3 3 1 4 2 3 6 3 7 4 4 5 4 3 6 11 13 16 15 13 13 14 15 13
10 7 2 2 3 4 1 2 2 2 1 4 4 4 2 3 1 1 1 3 1 4 10 7 2 1 2 3 2 5 5 2 6 6 4 5 6 0 1 1 2 3 3 3 3 3 4 3 2 12 5 4 2 0 2 2 2 2 1 5 4 4 5 6 9 8 4 8 8 1 5 9 7 12 10 12 12 7 8 8 7 10 12 11 12 14 14 12
6 6 5 4 3 2 1 3 3 3 4 2 4 1 2 1 3 2 2 3 3 3 2 7 2 2 3 3 3 4 4 3 3 6 6 3 5 1 3 1 2 2 1 2 4 1 0 12 13 3 5 3 0 4 4 4 1 3 1 5 4 1 2 4 6 4 8 10 9 8 13 8 5 9 3 6 9 14 7 9 9 9 8 9 12 13 13 13
4 2 1 2 2 1 1 2 4 4 2 1 1 1 0 0 1 1 1 2 2 2 1 0 3 2 1 3 4 4 6 4 6 4 4 2 2 1 1 3 1 0 3 2 1 3 1 9 4 3 5 7 6 3 3 3 1 5 4 3 3 3 3 6 3 8 5 7 5 9 12 10 8 10 2 2 3 3 5 6 7 9 10 8 11 14 14 12
1 1 2 2 2 1 1 3 5 3 3 3 0 1 2 2 2 0 1 2 3 1 0 2 1 1 2 3 2 3 4 6 5 4 5 1 2 1 4 1 2 1 3 1 1 2 1 3 7 2 2 6 7 3 2 3 3 3 4 2 2 2 7 6 2 4 2 7 7 5 1 6 4 4 5 7 6 8 8 10 10 10 9 9 11 14 15 13
4 2 1 2 1 2 3 5 4 3 2 1 1 1 2 1 3 3 2 2 2 0 2 1 1 2 1 4 4 6 1 3 5 5 1 2 1 7 2 1 2 6 6 1 3 1 3 2 7 5 4 8 6 2 1 5 8 6 5 4 1 2 2 1 2 2 3 5 4 5 7 3 6 3 1 4 6 5 7 9 9 8 9 8 8 10 11 13
1 3 1 2 0 2 5 6 5 2 1 0 1 3 2 1 2 2 5 3 1 3 5 2 0 1 2 4 4 1 2 3 2 2 1 3 2 4 1 0 3 7 4 3 1 1 1 1 5 12 12 7 8 3 6 8 5 3 6 5 5 6 6 5 8 2 4 2 5 6 8 3 5 2 7 5 5 7 8 6 8 9 10 7 9 9 9 11
2 1 1 2 2 3 3 3 1 0 1 0 1 1 2 2 1 3 2 1 2 2 1 2 4 3 3 3 4 2 2 3 3 1 1 3 2 3 4 3 6 3 3 3 3 1 1 3 4 11 7 11 14 19 12 9 4 4 3 3 2 1 1 2 4 4 5 3 6 6 6 6 9 1 1 1 2 5 7 5 7 11 10 9 7 7 7 6
3 1 5 4 3 2 4 2 1 1 0 2 3 1 1 2 2 2 2 1 3 1 3 1 3 1 3 2 1 2 1 4 5 2 1 1 4 7 7 8 4 8 3 2 3 1 3 0 4 9 8 7 11 7 3 2 4 2 1 2 3 3 1 4 4 6 5 6 4 5 5 5 2 5 11 13 14 11 4 3 6 7 10 10 7 6 8 9
0 1 4 2 2 3 4 1 1 3 3 3 3 3 3 2 1 3 1 2 0 2 2 2 4 5 5 2 0 2 2 5 1 3 4 2 3 7 4 6 4 3 1 1 2 1 4 1 2 9 10 7 2 5 4 3 4 2 2 3 2 1 2 3 1 2 4 6 10 6 6 4 11 12 14 15 15 14 16 12 2 7 10 9 9 7 7 8
1 1 1 5 4 3 0 3 2 1 1 3 3 7 3 2 2 2 1 6 3 3 0 3 4 1 3 2 3 3 2 5 5 3 6 3 5 2 7 7 4 3 4 6 9 1 3 2 0 3 6 8 11 5 5 8 9 8 2 1 1 4 7 4 3 3 5 6 6 2 6 11 14 16 18 14 12 15 15 12 12 7 7 8 10 10 11 9
1 1 4 3 5 3 3 0 3 1 2 4 4 3 0 1 4 4 8 6 4 2 3 3 4 1 4 4 6 4 4 3 6 4 0 2 4 3 2 5 2 5 14 15 12 3 2 1 4 6 6 10 11 8 2 5 10 11 15 11 13 7 6 4 5 6 10 11 7 7 11 16 19 19 20 17 11 14 15 16 16 15 16 10 5 7 10 11
0 2 0 2 4 5 1 3 2 3 1 2 2 1 3 0 3 3 3 0 1 0 2 4 2 2 2 6 6 8 4 6 4 8 10 11 4 4 5 8 11 12 20 13 7 3 2 3 7 9 12 13 14 14 11 7 12 15 14 19 14 9 6 7 8 12 8 2 12 10 15 13 18 20 19 20 17 13 12 13 13 12 13 15 14 13 13 12
2 2 1 1 1 3 2 2 3 2 0 1 3 0 2 3 2 1 4 2 3 3 1 1 2 5 9 8 10 8 8 9 9 9 6 6 8 9 11 4 4 10 9 2 1 4 4 6 7 7 14 14 14 16 13 10 10 12 14 16 18 17 9 10 14 16 10 7 13 19 11 10 13 17 20 21 19 18 18 13 12 10 11 15 18 17 16 15
2 1 1 1 0 1 1 2 4 1 1 0 1 1 1 1 4 3 1 4 4 3 3 5 6 8 7 7 6 7 9 8 5 4 6 10 9 11 11 8 3 2 2 3 3 2 2 6 6 8 14 14 13 13 12 13 12 11 15 17 17 16 16 12 15 14 11 12 15 17 22 19 16 19 22 22 20 13 11 9 10 12 15 14 15 18 18 17
1 1 1 4 2 1 1 0 1 0 1 3 1 3 1 2 7 3 2 1 3 5 1 4 4 8 6 6 3 6 9 8 12 14 9 11 14 5 9 10 10 2 5 8 6 3 2 3 2 3 6 12 13 12 13 14 12 15 17 16 17 15 13 13 12 16 13 11 15 19 19 20 17 18 20 21 18 14 13 15 15 14 11 12 13 14 16 17
1 2 2 1 2 2 1 1 1 0 1 2 3 4 2 4 3 2 3 2 5 7 1 2 5 9 6 5 7 11 10 8 9 12 12 10 13 9 7 3 6 16 14 10 3 2 5 10 8 9 11 14 13 14 14 13 14 16 17 16 13 10 13 13 9 9 5 12 13 10 12 15 19 16 12 14 15 15 14 13 13 12 8 8 10 13 14 15
0 1 2 4 0 2 1 1 0 2 2 4 4 3 1 2 1 2 5 4 3 4 2 2 6 6 9 8 13 12 10 8 10 10 9 10 10 13 12 15 13 13 12 11 5 9 6 6 7 6 12 15 15 12 13 11 10 14 13 14 12 12 14 16 14 11 11 10 9 11 15 15 17 15 13 16 17 18 14 11 12 14 9 5 8 11 13 14
Wind_Direction
14 11 9 9 7 5 2 1 359 358 357 356 356 355 353 353 352 350 348 348 346 345 343 343 343 342 342 340 340 339 331 334 319 317 318 253 241 272 298 300 315 316 340 339 352 8 340 341 348 344 347 0 250 104 243 149 169 105 215 176 236 199 211 198 208 189 210 217 277 335 215 210 246 293 251 94 80 131 84 93 338 18 18 308 306 140 140 145
6 7 7 4 4 3 359 358 357 356 353 353 352 351 350 350 350 349 347 345 345 343 342 341 341 341 340 340 339 339 339 315 314 303 257 263 6 313 283 301 313 325 351 352 6 355 342 330 332 346 348 337 315 229 7 264 139 178 218 177 231 182 231 171 206 225 228 255 239 283 307 187 239 202 237 170 217 147 124 45 26 49 3 41 98 130 139 149
11 5 3 2 2 359 356 356 354 353 351 350 349 348 348 347 347 346 346 343 342 342 341 340 340 340 340 340 337 342 334 311 325 310 281 13 13 358 344 323 312 319 39 310 305 309 284 288 299 331 315 303 297 233 49 255 152 232 176 236 237 224 256 248 248 252 223 248 287 305 300 146 253 189 350 220 189 187 170 160 350 150 196 144 136 143 147 155
9 7 2 2 1 357 354 352 352 350 348 347 346 345 345 344 343 343 341 341 339 340 340 338 339 341 340 338 342 337 329 304 331 296 254 311 349 346 350 347 309 317 356 278 285 288 277 283 282 223 291 243 288 270 250 248 148 272 180 224 230 236 257 257 251 258 271 268 276 277 285 313 285 267 168 231 165 229 219 192 166 195 175 168 160 155 152 159
9 7 5 2 358 358 354 351 349 348 345 345 344 343 341 341 340 339 338 337 336 337 338 337 338 339 341 340 340 346 317 53 321 338 301 336 341 347 348 341 332 320 333 283 322 306 319 288 290 329 170 260 306 334 238 251 206 274 214 228 201 283 247 263 255 264 262 281 268 285 296 255 305 311 247 157 195 205 211 222 226 178 164 156 163 167 163 165
9 7 6 3 358 354 355 352 348 347 344 341 342 340 338 337 337 336 334 332 334 334 336 336 337 339 339 346 337 342 24 44 309 290 311 332 343 353 346 338 337 332 350 5 21 322 7 344 29 18 328 154 243 208 268 217 285 249 265 262 221 224 243 275 268 239 268 269 260 270 249 286 267 263 250 187 211 247 232 226 211 179 168 169 161 159 168 170
10 6 5 2 0 353 354 352 349 345 343 340 340 337 335 336 333 333 330 330 330 332 332 334 336 338 340 351 331 64 64 254 315 278 329 330 343 344 342 335 345 349 353 7 354 5 348 324 355 249 254 304 281 227 266 292 257 250 259 298 286 230 236 249 263 272 283 251 261 228 342 291 280 254 292 225 244 235 282 262 189 168 164 147 153 172 170 178
9 6 2 359 357 354 353 351 348 345 342 339 337 335 333 332 331 327 326 326 326 326 328 331 333 337 346 357 2 349 276 254 265 308 326 344 338 336 340 327 3 348 351 346 350 345 342 322 308 281 214 206 245 351 301 325 277 244 260 242 256 258 245 253 271 290 291 271 258 309 287 263 235 231 344 255 256 270 277 6 167 140 146 170 170 177 182 181
8 5 2 357 355 352 350 348 348 344 342 339 334 333 330 328 327 324 322 323 322 321 324 326 332 333 4 24 14 342 299 227 274 312 339 340 330 327 346 335 343 351 332 328 354 322 322 286 343 59 293 330 302 329 302 3 294 211 223 312 307 297 310 293 300 265 263 271 272 292 273 264 254 307 274 236 259 238 269 41 102 152 158 172 186 186 184 191
6 4 2 359 355 351 350 346 345 343 340 336 335 330 329 325 323 321 321 319 318 318 322 324 328 340 44 26 357 1 268 327 324 336 326 331 327 328 328 321 345 338 345 326 326 355 359 313 307 294 260 265 255 253 268 273 247 305 309 282 273 272 291 289 232 284 295 243 247 262 276 273 260 148 263 280 233 250 165 259 63 161 174 185 186 192 195 193
5 3 1 358 355 351 348 346 341 342 338 337 332 332 324 323 320 320 318 317 315 317 323 325 327 351 37 65 356 277 304 344 316 319 318 323 321 322 316 318 326 327 326 312 307 304 280 295 313 309 262 238 343 298 217 235 312 310 292 310 277 262 254 261 289 269 271 288 195 194 252 264 257 176 233 245 271 188 216 234 206 183 189 191 195 191 197 200
3 2 360 356 354 351 346 343 341 339 339 335 334 327 324 320 320 318 318 315 313 315 320 320 330 101 110 103 227 237 268 311 311 307 308 312 306 299 293 288 293 287 305 303 299 295 282 292 323 331 256 359 317 295 283 286 329 292 320 305 296 299 288 217 225 235 161 262 279 179 309 271 245 240 165 218 249 275 233 255 230 205 203 201 196 198 196 205
3 1 359 356 353 350 347 342 341 339 337 334 331 325 322 320 318 318 317 318 315 315 317 308 345 108 46 307 237 249 283 286 292 303 304 299 293 280 265 281 285 278 269 274 282 291 297 288 291 307 253 334 252 209 276 338 294 310 299 211 296 296 279 255 204 207 204 246 141 84 264 243 243 249 203 225 220 249 273 267 266 229 215 209 200 199 204 208
3 1 358 355 352 350 347 344 340 338 335 331 327 325 321 317 316 317 316 320 319 329 330 9 97 68 108 251 285 270 282 283 295 310 290 313 346 321 326 323 301 295 304 263 285 287 294 266 228 266 260 227 270 309 330 322 296 256 266 188 215 255 261 199 169 177 214 186 182 148 253 256 233 268 264 226 193 221 240 239 242 253 234 215 212 204 205 208
2 1 357 354 353 350 347 344 339 336 332 329 327 323 319 316 315 315 320 314 333 356 31 74 61 83 30 270 263 280 275 277 318 272 296 327 331 326 327 331 330 324 305 262 278 292 292 348 323 275 271 238 250 320 302 326 308 239 307 251 268 201 261 338 312 152 214 271 174 158 246 261 209 257 268 264 208 212 236 239 237 232 237 229 215 213 210 212
1 359 356 354 353 351 347 343 340 333 331 331 327 321 317 313 315 319 318 339 333 336 98 49 57 116 231 311 273 306 346 8 302 311 306 281 301 297 293 300 293 321 350 332 303 301 332 45 278 223 261 328 224 232 323 339 295 258 216 270 254 230 251 354 272 199 209 211 255 188 242 34 217 213 224 231 224 215 231 237 241 236 235 233 225 216 214 215
359 357 354 353 353 350 347 344 340 338 332 329 326 319 316 315 320 328 11 359 333 318 121 157 135 128 83 240 271 11 315 292 320 310 317 289 287 277 300 320 318 324 329 312 308 305 296 258 259 266 204 221 177 149 249 260 260 251 221 241 204 219 258 220 294 299 222 188 247 226 232 238 234 267 255 282 224 234 240 245 246 244 240 239 233 228 221 217
358 355 352 352 351 350 348 345 342 336 332 332 328 317 320 312 334 14 20 348 342 42 68 58 116 86 284 351 342 319 316 305 315 300 297 285 268 281 221 284 277 320 333 331 339 187 276 247 217 248 232 195 200 192 192 226 223 224 217 268 273 259 222 233 189 269 158 218 226 231 232 244 232 251 272 245 209 214 237 241 245 248 248 247 239 234 234 228
355 354 351 351 349 348 348 346 343 338 335 335 324 310 330 318 13 88 47 346 30 357 22 336 28 69 259 295 304 300 315 293 301 303 298 329 317 228 264 244 284 305 331 74 284 136 333 304 298 228 236 206 210 208 219 230 80 178 192 218 230 234 234 228 238 261 273 250 227 234 240 246 240 247 251 266 230 196 230 240 248 249 251 251 245 235 230 231
354 352 350 349 349 347 346 346 343 340 340 338 334 337 345 26 8 336 343 30 81 169 247 273 357 258 302 292 289 282 294 288 334 284 286 288 294 354 301 234 221 5 330 273 269 240 182 223 231 234 233 229 234 229 236 258 288 282 307 279 257 257 268 281 245 234 230 257 247 245 244 250 240 234 240 241 254 239 239 249 245 248 247 245 245 241 237 234
351 352 350 348 347 346 343 343 341 338 346 357 342 12 46 355 2 353 336 294 244 166 232 261 210 222 241 284 301 331 350 335 318 299 294 315 279 10 300 68 288 199 217 263 260 200 81 242 240 239 248 263 242 225 262 266 260 267 284 282 275 255 264 247 261 264 255 202 273 249 250 247 240 235 234 243 250 251 240 243 250 246 246 250 242 239 236 237
350 349 348 346 345 344 342 341 340 342 360 18 34 52 115 46 184 214 95 324 313 226 227 258 256 270 279 249 255 273 172 293 318 288 297 39 334 65 312 54 303 289 314 12 350 279 255 242 250 257 268 270 251 228 235 236 248 252 244 258 274 260 267 269 267 263 267 216 269 274 249 254 245 237 236 232 236 243 245 238 244 241 248 249 251 243 242 241
347 347 345 345 344 341 341 339 336 3 16 20 24 55 78 286 86 6 77 247 264 272 286 317 293 257 290 277 275 123 11 286 303 317 306 24 345 135 307 359 292 275 299 136 338 289 250 244 254 254 279 248 246 250 256 257 246 236 235 241 243 258 252 296 273 313 295 198 286 336 305 278 276 255 244 242 231 240 246 255 252 226 235 241 237 230 230 235
345 344 344 343 343 343 337 337 341 22 6 331 111 51 272 172 137 64 63 206 299 318 231 239 217 256 278 348 316 352 52 285 36 307 300 24 332 275 324 235 294 327 278 220 216 228 261 278 337 271 226 228 241 234 233 250 254 233 229 237 248 251 237 232 275 319 305 289 242 305 296 285 225 252 258 260 236 235 253 263 269 274 253 242 252 256 230 227
343 341 341 341 343 342 338 332 37 339 320 23 7 265 305 212 124 127 92 332 8 280 264 313 167 262 258 286 350 340 280 295 230 254 292 59 316 357 260 342 314 257 256 264 255 257 262 259 262 268 299 275 239 239 238 235 252 256 233 227 240 250 259 263 278 284 299 295 291 242 309 270 232 230 240 247 264 242 226 224 244 244 251 252 250 241 245 247
342 338 338 339 340 344 336 348 311 338 348 325 244 288 299 66 128 145 104 59 339 268 344 331 158 313 38 315 330 291 16 305 234 273 264 223 229 206 314 319 181 272 58 332 254 236 272 347 307 242 237 250 235 245 246 213 241 251 232 210 236 243 246 254 259 224 242 248 282 81 222 274 154 255 239 238 238 248 244 225 239 239 240 239 242 249 244 235
339 336 335 337 338 345 9 319 294 356 24 313 287 317 297 17 107 78 36 359 20 279 287 242 47 328 50 306 345 337 51 304 321 353 7 338 9 318 323 272 344 307 342 288 344 287 148 302 27 359 294 242 247 258 247 215 241 242 261 273 211 226 231 235 229 228 241 257 277 322 213 261 276 242 244 225 231 253 264 258 250 246 251 251 247 245 248 251
337 333 332 335 336 346 231 273 348 335 246 254 300 322 349 348 71 53 81 57 303 304 13 317 109 277 20 317 14 59 264 287 1 299 191 294 143 346 136 274 249 277 313 359 236 210 90 325 52 25 68 331 265 267 309 326 241 276 308 350 282 253 248 231 218 230 231 242 249 254 228 280 256 255 208 179 245 269 258 246 246 246 244 247 250 242 238 239
334 331 330 332 337 336 65 161 275 265 250 285 305 329 344 49 75 92 113 104 258 5 218 82 266 6 328 335 2 20 319 351 343 270 314 5 81 193 348 275 212 261 266 223 257 290 353 355 171 134 73 284 244 286 309 356 338 296 338 314 290 355 310 269 238 228 239 206 243 232 188 247 268 245 199 242 213 231 244 245 249 245 239 240 244 248 246 243
331 328 329 333 338 23 348 349 200 242 287 301 311 339 37 55 36 32 24 310 339 318 353 265 16 312 338 358 322 341 6 321 245 312 323 332 300 11 243 144 238 280 275 287 245 266 276 307 278 267 235 232 234 228 229 258 234 288 328 281 287 302 301 326 285 227 210 234 231 222 198 211 272 237 195 193 215 214 241 274 272 258 259 254 245 244 247 248
330 328 327 332 325 294 338 323 269 258 268 326 349 25 69 37 103 106 84 239 270 263 2 14 351 357 345 357 336 312 335 322 325 352 330 342 342 11 342 12 257 280 323 268 264 271 267 246 234 237 212 219 195 251 198 214 219 17 294 306 303 284 245 256 259 231 232 237 222 216 196 194 234 260 208 218 228 187 197 239 248 258 254 251 248 245 243 241
329 326 325 327 294 216 159 266 247 301 320 355 27 37 67 11 13 89 231 316 32 298 46 311 17 347 327 333 123 330 324 318 323 357 350 342 335 8 357 28 341 350 0 6 332 315 305 241 274 320 171 176 128 246 244 185 200 214 242 279 245 260 204 243 210 227 215 236 219 173 150 250 230 254 196 250 265 269 245 244 256 257 257 253 251 252 249 247
328 327 323 315 316 232 236 246 275 288 348 23 51 50 58 93 43 268 302 343 256 223 310 99 337 329 319 336 333 319 342 9 321 345 349 328 30 330 337 36 327 47 310 333 317 356 289 318 8 306 12 12 12 275 282 102 214 195 211 211 216 235 241 253 211 246 275 297 231 133 177 228 256 271 243 247 240 239 264 252 235 235 242 245 248 250 251 248
328 329 324 300 294 240 246 267 222 183 15 34 74 30 46 62 264 232 339 240 278 307 307 358 321 315 358 75 316 342 353 271 13 333 16 333 34 360 331 346 3 354 52 299 9 349 8 342 313 30 348 23 54 242 318 303 332 231 236 189 241 235 242 263 212 236 238 247 316 262 152 244 170 238 226 219 226 225 237 249 259 258 257 262 268 285 285 272
332 323 307 308 339 309 288 172 128 89 77 59 43 88 91 240 223 220 273 299 298 283 307 316 311 349 312 350 305 12 96 317 336 347 349 15 339 339 330 351 357 355 297 24 336 51 234 240 274 178 239 335 278 232 235 167 268 229 203 54 218 232 234 248 291 330 311 312 279 203 211 207 228 329 311 244 311 329 282 270 264 263 260 259 261 261 261 259
346 320 359 315 358 324 40 94 73 56 84 56 75 51 104 184 267 161 295 193 357 353 312 321 246 35 290 311 316 13 303 2 308 357 317 353 307 348 296 8 331 339 13 37 311 352 348 300 270 317 325 192 168 212 286 206 280 351 63 199 259 306 225 283 278 236 271 278 238 215 275 271 312 278 275 289 281 263 247 261 275 271 271 276 272 270 268 269
345 339 15 330 353 340 11 69 70 69 55 86 85 41 196 284 191 173 337 357 284 277 322 331 340 349 354 297 293 336 309 357 336 2 320 353 340 321 359 256 199 310 15 102 323 209 209 286 300 286 318 286 338 264 240 225 262 48 348 285 341 146 158 211 252 246 222 241 257 217 241 247 210 274 266 270 255 267 280 265 260 269 277 273 265 265 266 263
327 336 282 339 316 333 68 68 73 46 71 58 79 326 99 90 246 176 227 348 356 11 290 142 273 12 277 344 314 320 327 340 336 359 321 327 276 234 21 336 298 75 312 360 86 296 93 304 294 233 247 294 325 5 346 353 344 183 255 87 40 300 224 202 172 246 259 221 246 232 224 236 191 237 316 251 255 278 307 316 330 304 300 302 307 299 287 271
355 55 22 298 339 18 35 64 68 86 83 72 173 345 300 220 264 63 292 209 190 270 305 236 180 318 20 330 266 305 342 337 340 325 351 267 32 40 22 210 315 280 292 230 352 282 8 264 301 306 62 304 326 61 347 313 319 326 348 343 237 195 260 292 214 292 312 277 297 311 231 254 196 232 232 256 306 8 357 6 352 333 320 325 335 335 322 308
11 42 318 271 7 79 57 64 56 40 72 106 244 245 211 316 276 290 241 338 298 198 254 284 186 282 328 230 301 311 319 295 321 294 184 272 305 298 359 11 302 327 332 180 226 71 293 134 277 284 335 5 329 15 329 8 334 332 4 315 11 248 259 142 317 192 242 283 262 292 267 251 256 229 291 32 36 11 14 351 338 327 322 321 323 333 338 330
34 103 261 277 19 18 51 50 58 60 77 296 139 203 339 247 320 285 278 195 225 220 222 232 169 200 224 325 299 151 285 291 265 262 206 295 190 327 254 356 309 340 324 355 70 295 325 316 262 304 324 309 258 220 279 285 282 283 295 300 328 353 334 328 292 107 1 312 294 291 268 298 274 49 51 23 1 357 336 346 320 317 318 317 323 326 341 338
70 58 279 298 333 40 70 39 334 129 77 107 265 201 310 316 13 277 326 10 170 286 346 253 253 242 270 252 251 284 264 267 249 257 256 201 275 183 272 336 344 299 345 298 291 129 169 241 241 284 276 284 293 289 284 258 235 237 229 268 69 254 333 333 299 324 355 307 262 266 277 260 262 356 76 126 331 320 303 304 318 317 317 324 315 303 312 320
60 188 249 283 296 102 68 66 279 67 181 239 281 320 320 309 207 261 350 346 343 143 358 228 240 297 251 219 251 224 256 286 261 217 244 275 256 231 253 303 307 328 4 293 1 202 232 343 290 277 280 277 286 274 316 126 134 69 46 23 35 350 29 26 306 297 282 298 321 283 233 284 297 350 331 336 327 314 255 234 297 310 310 316 317 315 327 334
181 231 316 303 46 91 78 87 334 315 285 310 7 291 279 235 262 326 356 303 5 329 187 253 309 200 261 225 259 265 348 320 217 230 302 221 273 252 278 289 327 292 32 266 5 307 340 263 74 312 324 328 35 345 3 0 48 71 344 311 216 63 45 232 233 268 267 254 250 280 267 292 284 310 314 317 316 311 310 310 218 285 304 303 311 317 321 325
350 321 263 297 355 69 114 194 122 211 324 3 341 311 322 340 211 224 315 301 278 236 20 269 225 225 267 246 250 263 222 209 282 216 257 230 251 310 294 281 273 248 245 250 264 114 218 250 80 305 312 314 314 343 342 328 324 308 274 337 228 324 310 343 306 254 266 252 230 214 270 265 278 292 298 301 305 306 305 304 308 275 253 281 305 312 315 317
26 95 302 341 8 10 60 97 76 3 31 8 337 275 65 335 322 324 292 280 240 250 209 264 305 257 266 287 268 240 267 233 220 284 55 283 287 306 257 294 236 258 274 271 278 115 264 232 166 200 220 249 249 259 199 308 307 300 293 284 276 255 245 234 244 267 243 257 259 231 249 275 285 288 294 299 295 294 297 306 306 309 312 312 285 288 299 302
202 91 329 326 346 37 95 13 50 19 51 2 321 321 315 275 289 307 247 314 304 162 279 203 228 293 343 353 331 325 291 303 256 267 272 281 287 262 305 290 276 271 270 276 273 104 221 245 215 216 231 239 254 266 270 270 267 273 279 284 281 267 240 231 221 239 236 5 276 241 233 245 265 278 277 279 284 282 283 283 291 305 307 305 302 300 296 293
64 270 83 193 133 254 44 318 29 26 304 47 255 343 270 341 340 307 304 247 308 304 249 334 109 49 23 5 341 316 318 308 292 282 336 321 324 314 310 281 247 265 291 277 250 178 170 246 232 210 246 243 248 254 255 255 246 255 263 268 279 278 261 240 244 246 262 233 254 276 265 240 258 259 265 271 274 274 279 296 305 302 296 297 303 305 303 299
136 213 146 314 111 233 164 278 311 176 346 235 254 270 283 267 281 244 307 313 331 317 14 313 346 13 350 346 342 300 306 316 297 316 315 313 310 319 301 319 252 8 49 324 337 338 334 227 256 216 249 253 252 255 251 249 255 255 258 263 263 269 265 253 259 260 245 241 246 257 269 261 254 266 270 272 277 293 305 303 295 294 290 290 294 297 297 297
291 87 306 358 61 351 277 296 196 8 1 296 310 239 224 258 276 329 348 359 311 288 356 299 324 334 327 319 308 279 277 276 284 296 313 306 303 281 296 281 287 296 19 318 315 283 138 282 16 297 291 274 265 249 244 239 243 257 259 256 260 263 274 261 252 262 256 259 254 259 271 282 269 256 268 277 284 289 287 288 280 274 278 282 283 285 290 295
206 178 149 105 344 275 259 183 255 211 309 260 190 272 209 241 267 2 278 197 236 275 346 267 318 317 315 304 283 268 273 266 270 269 279 283 285 307 310 290 340 303 299 287 254 241 167 271 283 278 276 273 270 264 250 238 237 241 256 265 263 275 278 274 253 251 236 252 259 263 263 260 267 269 263 272 275 273 271 272 278 279 275 277 282 286 291 293
63 319 92 102 90 217 189 315 35 46 283 228 187 243 216 272 279 20 337 266 237 214 201 305 306 328 305 309 294 281 276 270 266 270 275 275 270 278 265 268 270 265 281 267 256 264 238 262 266 263 266 265 270 265 262 257 269 260 246 259 274 253 241 261 262 255 238 239 257 251 248 248 258 268 270 271 273 276 275 267 276 286 286 266 273 280 280 283